Погода в Могилеве

Погода в Могилеве : погода сейчас, прогноз погоды и архив. Всё, что Вы хотите узнать о погоде в Могилеве!

Поиск расширенной информации на нашем сайте:

Полезная информация:

Другие новости

Новости СМИ2

Главная страница сайта

Новости сайта

03.07.2017

Напоминаем, что на нашем специализированном сайте Метеоцентр.Азия вы можете получить высокодетализированные автоматические прогнозы погоды по пунктам России, СНГ и мира в авиационном формате (включающие направление и скорость ветра, видимость, явления погоды, количество и форму облачности, нижнюю и верхнюю границу облачности).

Рекомендуем:

Погода в Могилеве - сегодня

Время (UTC), дата Ветер
(°,м/с) 
Видим.   Явления Облачность Т
(°С)
Тd
(°С)
f(%) Тe
(°С)
Pmin
(гПа)
dP
(гПа)
Po
(мм)
O2
(г/м3)
Тmin Tmax R s Состояние
почвы
18 27.06.19 310 (СЗ) 9-12{13}  10 км  {гроза, ливн. осадки}  8/8 1000 м 
[Sc]
+18.1 +12.7 71 +23  1002.6  0.8  735  275    +25.1     
21 27.06.19 290 (З) 9-11{12}  10 км    9/9 1200 м 
[Sc]
+14.8 +10.3 74 +16  1003.4  0.5  736  279           
00 28.06.19 290 (З) 8-11{12}  10 км    8/8 800 м 
[Sc]
+13.9 +10 77 +15  1003.4  -0.1  736  280           
03 28.06.19 290 (З) 9-12{14}  9000 м  слаб. ливневой дождь  10/8 500 м кучево-дожд., средняя 
[Cb calv|Ac As]
+13 +10.9 87 +14  1003.2  -0.3  735  281      0.0     
06 28.06.19 310 (СЗ) 10  10 км  {ливн. осадки}  9/9 600 м средняя, верхняя 
[St|As op|Ci fib]
+13.8 +9.3 74 +13  1003.8  0.7  736  281      0.5     
09 28.06.19 310 (СЗ) 11-15{17}  10 км    9/9 800 м 
[Sc]
+14.7 +8.4 66 +13  1005.2  1.4  737  280           
12 28.06.19 320 (СЗ) 10-15{18}  10 км  в посл. час ливневой дождь  10/8 870 м кучево-дожд., средняя 
[Cb calv|Ac As]
+14.1 +9.2 72 +13  1007.5  2.2  739  281      0.2     
15 28.06.19 310 (СЗ) 9-11{16}  10 км    9/6 1350 м средняя 
[Sc|Ac trans]
+15.5 +9.3 67 +15  1008.7  1.1  739  280      0.4     
18 28.06.19 290 (З) 5{13}  10 км  {ливн. осадки}  8/0 средняя 
[Ac trans]
+13.6 +10.5 82 +15  1009.2  0.6  740  282    +16     
21 28.06.19 290 (З) 10 км    3/0 средняя 
[Ac trans]
+10.6 +8 84 +10  1010.8  1.2  741  286           
00 29.06.19 280 (З) 10 км    ясно 
+8.7 +6.4 85 +8  1011.4  0.5  741  288           
03 29.06.19 290 (З) 10 км    3/0 средняя 
[Ac trans]
+8.2 +5.6 84 +7  1011.5  741  289           
06 29.06.19 300 (СЗ) 10 км    6/0 средняя 
[Ac trans]
+13.7 +7.6 67 +13  1010.9  -0.1  741  283  +7.1         
09 29.06.19 320 (СЗ) 7{11}  10 км    8/8 800 м верхняя 
[Cu hum|Ci sp]
+18.6 +4.6 40 +19  1010.1  -0.4  741  279           
12 29.06.19 300 (СЗ) 9-11{13}  15000 м    6/6 1020 м 
[Cu hum]
+19.9 +3.4 34 +20  1009.9  -0.2  741  278           
15 29.06.19 310 (СЗ) 10-12{14}  15000 м    6/6 1110 м 
[Sc]
+19.1 +5.8 42 +19  1009.9  741  278           
18 29.06.19 280 (З) 4{13}  14000 м    8/0 верхняя 
[Ci sp]
+15.3 +7.7 60 +15  1011.4  1.2  742  282    +21.3       
21 29.06.19 290 (З) 10 км    4/3 1000 м верхняя 
[Sc|Ci sp]
+12.5 +8.1 75 +12  1012.3  0.7  742  284           
00 30.06.19 280 (З) 10 км    9/0 средняя 
[Ac As]
+12.5 +9.8 84 +14  1012.1  -0.2  742  284           
03 30.06.19 240 (ЮЗ) 10 км    8/6 1080 м средняя 
[Sc|Ac trans]
+13.3 +9.8 79 +14  1011.3  -0.7  741  283           
06 30.06.19 300 (СЗ) 10 км    8/0 средняя 
[Ac trans]
+15.9 +10.9 72 +19  1010.9  -0.3  741  280  +11         
09 30.06.19 280 (З) 10 км    8/5 600 м верхняя 
[Cu hum|Ci sp]
+21.7 +11.3 52 +25  1010.8  0.4  741  275           
12 30.06.19 300 (СЗ) 10 км    8/4 1000 м средняя, верхняя 
[Cu hum|Ac trans|Ci sp]
+24.8 +10.9 42 +27  1010.4  -0.2  741  272           
15 30.06.19 310 (СЗ) 10 км    6/6 1170 м 
[Sc]
+26.1 +11.5 40 +30  1009.7  -0.5  741  270           
18 30.06.19 220 (ЮЗ) 10 км    3/0 верхняя 
[Ci sp]
+21.9 +15.2 66 +31  1009.8  -0.2  741  273    +26.4       
Время (UTC), дата Ветер
(°,м/с) 
Видим.   Явления Облачность Т
(°С)
Тd
(°С)
f(%) Тe
(°С)
Pmin
(гПа)
dP
(гПа)
Po
(мм)
O2
(г/м3)
Тmin Tmax R s Состояние
почвы

Для получения пояснительной информации подведите курсор к названию столбца.

ПОГОДА в Могилеве - архив

Всё, что Вы хотите узнать о погоде в Могилеве - удобно и подробно!

Выберите нужную дату (начиная с 1 января 2018* года) и нажмите кнопку "Найти".
Будут отображены архивные сводки погоды по пункту Могилев, начиная с указанной даты.


Отображать данные в формате CSV (для использования в таблицах Excel)


Внимание! Наш архив погоды предназначен исключительно для личного некоммерческого использования в познавательных целях. Если Вам необходимы официальные справки о состоянии погоды (для производственных, юридических, коммерческих и т.п. целей), обращайтесь в органы Росгидромета.

*Примечание: данная дата относится к архиву по метеостанциям СССР (Россия, СНГ, Балтия).
Архив по метеостанциям Зарубежной Европы и Азии (кроме Китая) хранится 10 дней, по другим регионам земного шара (Китай, Африка, Америка, Австралия, Океания) - 1 день.

Могилев - район местоположения метеостанции


Название, широта, долгота, высота метеостанции:
Могилев 53.9°ш. 30.1°д. 192 м над ур. моря [Беларусь]

Дополнительная информация

В oтличие oт бoльшинства пoгoдных сайтoв мы публикуем пoдрoбную метеoинфoрмацию в детальнoм прoфессиoнальнoм фoрмате.

Характеристики температуры и влажнoсти вoздуха измеряются на высoте 2 м в тени вдали oт зданий и деревьев.
Скoрoсть ветра измеряется на высoте 10 м (на урoвне рoста челoвека скoрoсть ветра ниже в 1.5-2 раза). Если метеoстанция нахoдится в гoрoде или в лесу, тo скoрoсть ветра занижена на 2-4 м/с пo сравнению с oткрытым местoм. Скoрoсть ветра над акватoриями крупных рек и oзёр, а также на вершинах хoлмoв на 2-5 м/с выше, чем в oбычных услoвиях.
Атмoсфернoе давление в разных тoчках местнoсти мoжет значительнo oтличаться oт давления на метеoстанции, в зависимoсти oт услoвий рельефа (при пoдъёме на 10 м давление пoнижается примернo на 1 мм рт.ст.).